N1EP KJWN-

Flight info

Callsign N1EP
Flight time N/A
Altitude
Route VFR SOUTH
Aircraft B36T/L-DOV/C

Departure

Time 2026-04-26 22:52
Airport John C Tune Airport (KJWN)

Arrival

Time N/A
Airport -
Time Latitude Longitude Altitude Speed Heading
2026-04-26 22:47 36.17905 -86.88423 473 ft 0 kts 330°
2026-04-26 22:48 36.17906 -86.88423 473 ft 2 kts 330°
2026-04-26 22:48 36.17932 -86.88442 473 ft 2 kts 326°
2026-04-26 22:49 36.17942 -86.88451 473 ft 0 kts 323°
2026-04-26 22:49 36.17970 -86.88479 473 ft 9 kts 321°
2026-04-26 22:50 36.18036 -86.88565 473 ft 9 kts 294°
2026-04-26 22:50 36.18163 -86.88556 478 ft 24 kts 14°
2026-04-26 22:50 36.18361 -86.88495 485 ft 40 kts 14°
2026-04-26 22:50 36.18571 -86.88424 493 ft 20 kts 13°
2026-04-26 22:51 36.18764 -86.88362 503 ft 19 kts 15°
2026-04-26 22:51 36.18798 -86.88370 505 ft 4 kts 316°
2026-04-26 22:51 36.18813 -86.88472 505 ft 12 kts 227°
2026-04-26 22:51 36.18542 -86.88573 488 ft 86 kts 195°
2026-04-26 22:52 36.17918 -86.88845 831 ft 94 kts 204°
2026-04-26 22:52 36.17303 -86.89198 1067 ft 101 kts 198°
2026-04-26 22:52 36.16634 -86.89541 1366 ft 103 kts 199°
2026-04-26 22:52 36.15929 -86.89861 1637 ft 114 kts 202°
2026-04-26 22:53 36.15142 -86.90243 1737 ft 127 kts 204°
2026-04-26 22:53 36.14325 -86.90644 1909 ft 127 kts 204°
2026-04-26 22:53 36.13515 -86.91086 2055 ft 129 kts 207°
2026-04-26 22:53 36.12709 -86.91676 2006 ft 138 kts 216°